Accueil
METAR-TAF:

METAR-TAF

Aéroports :

Piney Island, Caroline du Nord, États-Unis

latitude: 35-01-20N, longitude: 076-27-45W, altitude: 5 m

Observation

Le bulletin a été fait il y a 1 heure et 8 minutes, à 18:56 UTC
Vent 5 kt de est
Température 13°C
Humidité 44%
Pression 1022 hPa
Visibilité: 16.1 km
Quelques nuages à une hauteur de 4700 ft
Nuages fragmentés à une hauteur de 6500 ft

METAR: KNBT 161856Z AUTO 09005KT 10SM FEW047 BKN065 13/01 A3017 RMK AO2 SLP221 T01280006

Heure: 15:04 (20:04 UTC)


TAF: absent

Observations et prévisions météorologiques de plus de 4000 aéroports (messages METAR et TAF).

Les stations disponibles sont représentées par des disques jaunes et rouges sur la carte.

Passer la souris dessus pour voir le nom de la station.

Cliquer dessus pour voir les observations et prévisions météorologiques.

Pour changer de carte: cliquez sur les boutons verts avec une croix noire pour zoomer, sur le bouton vert avec un tiret pour effectuer un zoom arrière, ou sur les flèches vertes pour les cartes adjacentes.


METAR-TAF: